Weather History for KSNS - July, 2013

Change the Weather History Date:

Saturday, July 20, 2013

  Actual Average Record
Temperature  
Mean Temperature 59 °F 63 °F  
Max Temperature 65 °F 71 °F 88 °F (1996)
Min Temperature 53 °F 55 °F 43 °F (1939)
Degree Days  
Heating Degree Days 6 3  
Month to date heating degree days 50 60  
Since 1 June heating degree days 148 173  
Since 1 July heating degree days 50 60  
Cooling Degree Days 0 1  
Month to date cooling degree days 11 20  
Year to date cooling degree days 45 48  
Since 1 June cooling degree days 35 32  
Growing Degree Days 8 (Base 50)    
Moisture  
Dew Point 52 °F    
Average Humidity 78    
Maximum Humidity 93    
Minimum Humidity 63    
Precipitation  
Precipitation 0.00 in 0.00 in 0.03 in (1985)
Month to date precipitation T 0.00  
Year to date precipitation 2.33 8.72  
Since 1 July precipitation T 0.00  
Sea Level Pressure  
Sea Level Pressure 29.89 in    
Wind  
Wind Speed 7 mph (West)    
Max Wind Speed 17 mph    
Max Gust Speed 22 mph    
Visibility 8 miles    
Events      
T = Trace of Precipitation, MM = Missing Value Source: NWS Daily Summary

Daily Weather History Graph

Daily Weather History Graph

Search for Another Location

Airport or City:

Trip Planner

Search our weather history database for the weather conditions in past years. The results will help you decide how hot, cold, wet, or windy it might be!

Date:

Astronomy

Jul. 20, 2013 Rise Set
Actual Time 6:03 AM PDT 8:21 PM PDT
Civil Twilight 5:33 AM PDT 8:51 PM PDT
Nautical Twilight 4:57 AM PDT 9:27 PM PDT
Astronomical Twilight 4:17 AM PDT 10:06 PM PDT
Moon 6:30 PM PDT (7/20) 3:48 AM PDT (7/20)
Length of Visible Light 15h 17m
Length of Day
14h 18m
Waxing Gibbous, 94% of the Moon is Illuminated
Jul 20
Waxing Gibbous
Jul 22
Full
Jul 29
Last Quarter
Aug 6
New
Aug 14
First Quarter

Hourly Weather History & Observations

Time (PDT) Temp. Dew Point Humidity Pressure Visibility Wind Dir Wind Speed Gust Speed Precip Events Conditions
12:53 AM 54.0 °F 52.0 °F 93% 29.92 in 6.0 mi WSW 4.6 mph - N/A   Overcast
1:53 AM 54.0 °F 52.0 °F 93% 29.93 in 6.0 mi WSW 4.6 mph - N/A   Overcast
2:53 AM 54.0 °F 52.0 °F 93% 29.92 in 6.0 mi SW 4.6 mph - N/A   Overcast
3:53 AM 54.0 °F 52.0 °F 93% 29.91 in 6.0 mi SW 5.8 mph - N/A   Overcast
4:53 AM 54.0 °F 52.0 °F 93% 29.90 in 5.0 mi WSW 4.6 mph - N/A   Overcast
5:53 AM 54.0 °F 52.0 °F 93% 29.91 in 5.0 mi WSW 4.6 mph - N/A   Overcast
6:53 AM 54.0 °F 52.0 °F 93% 29.91 in 6.0 mi SW 4.6 mph - N/A   Overcast
7:53 AM 54.0 °F 52.0 °F 93% 29.92 in 6.0 mi Calm Calm - N/A   Overcast
8:20 AM 53.6 °F 51.8 °F 94% 29.89 in 8.0 mi West 3.5 mph - N/A   Overcast
8:53 AM 55.0 °F 52.0 °F 89% 29.93 in 10.0 mi WSW 5.8 mph - N/A   Overcast
9:53 AM 57.9 °F 51.1 °F 78% 29.91 in 10.0 mi Calm Calm - N/A   Overcast
10:53 AM 62.1 °F 53.1 °F 72% 29.91 in 10.0 mi Variable 4.6 mph - N/A   Mostly Cloudy
11:37 AM 62.6 °F 51.8 °F 68% 29.87 in 10.0 mi WNW 11.5 mph - N/A   Scattered Clouds
11:53 AM 61.0 °F 52.0 °F 72% 29.90 in 10.0 mi West 9.2 mph - N/A   Partly Cloudy
12:09 PM 60.8 °F 51.8 °F 72% 29.87 in 10.0 mi West 13.8 mph - N/A   Mostly Cloudy
12:37 PM 62.6 °F 51.8 °F 68% 29.87 in 10.0 mi West 11.5 mph - N/A   Scattered Clouds
12:53 PM 62.1 °F 52.0 °F 70% 29.90 in 10.0 mi West 13.8 mph - N/A   Scattered Clouds
1:53 PM 63.0 °F 52.0 °F 67% 29.89 in 10.0 mi West 11.5 mph - N/A   Partly Cloudy
2:53 PM 64.9 °F 52.0 °F 63% 29.89 in 10.0 mi WNW 16.1 mph - N/A   Clear
3:53 PM 62.1 °F 52.0 °F 70% 29.88 in 10.0 mi WNW 15.0 mph - N/A   Scattered Clouds
4:05 PM 62.6 °F 51.8 °F 68% 29.85 in 10.0 mi WNW 16.1 mph - N/A   Mostly Cloudy
4:16 PM 62.6 °F 51.8 °F 68% 29.84 in 9.0 mi WNW 12.7 mph - N/A   Mostly Cloudy
4:53 PM 61.0 °F 52.0 °F 72% 29.86 in 10.0 mi West 13.8 mph - N/A   Overcast
5:53 PM 59.0 °F 51.1 °F 75% 29.86 in 9.0 mi WNW 11.5 mph - N/A   Overcast
6:27 PM 57.2 °F 51.8 °F 82% 29.83 in 9.0 mi West 12.7 mph - N/A   Overcast
6:53 PM 57.9 °F 51.1 °F 78% 29.86 in 9.0 mi West 11.5 mph - N/A   Overcast
7:53 PM 57.0 °F 52.0 °F 83% 29.87 in 7.0 mi West 8.1 mph - N/A   Overcast
8:53 PM 55.9 °F 52.0 °F 87% 29.87 in 8.0 mi WNW 9.2 mph - N/A   Overcast
9:53 PM 55.9 °F 52.0 °F 87% 29.88 in 8.0 mi WNW 4.6 mph - N/A   Overcast
10:53 PM 55.9 °F 52.0 °F 87% 29.88 in 7.0 mi NW 4.6 mph - N/A   Overcast
11:53 PM 55.0 °F 52.0 °F 89% 29.89 in 6.0 mi NW 3.5 mph - N/A   Overcast